Theta_e
326 332 337 338 338 335 336 337 337 338 347 351 352 352 353 357 355 353 353 353 352 352 350 350 350 351 350 350 349 349 348 345 345 346 350 350 348 351 349 349 349 346 343 346
328 333 334 331 333 334 334 336 337 338 348 351 351 352 350 358 357 355 353 352 353 352 352 351 351 351 351 351 350 350 349 347 346 346 347 350 350 351 348 349 348 343 344 347
325 329 327 331 331 333 334 336 335 335 350 350 352 347 353 353 356 355 354 352 351 352 352 352 351 351 351 351 351 351 349 347 345 346 347 347 350 349 348 349 350 349 349 346
323 322 328 329 331 333 335 331 331 333 339 333 346 337 345 351 355 355 355 354 352 352 351 350 350 351 350 350 351 351 351 348 346 346 348 347 352 349 344 344 345 350 346 346
321 324 324 326 329 329 333 330 329 331 338 342 344 343 341 345 347 350 353 353 352 351 350 350 349 348 348 348 349 351 350 348 348 346 347 349 350 351 346 343 347 348 347 347
320 318 321 325 325 328 325 326 328 339 342 338 340 342 339 346 350 346 347 349 350 351 350 349 348 348 348 347 347 349 351 349 346 347 348 348 351 351 348 347 348 346 344 344
320 321 319 321 322 321 322 323 333 334 340 338 338 346 339 341 343 342 342 345 347 349 350 350 350 349 348 346 348 348 350 351 348 348 350 349 348 351 351 349 348 346 343 342
320 320 319 320 322 322 322 323 330 338 336 336 342 345 340 342 341 341 342 343 344 345 348 350 350 349 349 347 349 350 350 351 350 348 350 349 348 345 348 348 348 346 343 340
320 320 318 317 320 322 324 324 323 326 326 331 332 341 339 340 341 343 345 345 347 345 346 349 349 350 350 349 350 351 352 352 352 351 351 349 348 346 348 349 346 342 339 336
319 321 320 320 319 319 323 323 324 326 330 331 331 335 334 339 340 338 345 346 348 348 347 348 350 350 349 349 350 351 352 353 354 353 351 351 350 347 346 345 342 339 336 334
316 317 323 318 320 321 321 322 322 323 325 327 329 329 335 341 339 336 335 346 348 348 348 349 350 350 349 348 349 349 351 354 354 353 353 351 347 346 344 341 339 336 334 330
320 318 322 323 317 315 319 322 322 323 325 325 326 326 327 331 332 336 338 342 346 347 349 350 350 350 349 348 349 350 351 352 352 352 350 346 343 341 340 337 335 333 330 327
326 326 329 326 319 318 319 319 321 320 320 326 324 324 330 326 331 339 340 342 346 348 349 351 351 352 350 349 349 349 349 349 349 348 346 341 339 337 336 334 331 328 325 322
325 320 332 333 332 329 331 324 318 320 322 323 323 324 329 330 338 342 335 342 343 348 349 351 351 352 351 351 350 349 350 350 347 345 342 339 336 335 333 331 328 325 322 317
328 331 328 328 327 325 326 324 320 320 323 324 324 327 331 332 343 344 339 338 343 347 349 352 351 351 352 352 351 350 350 348 343 341 340 338 336 333 330 327 325 322 317 312
327 333 331 332 330 330 330 327 321 320 321 322 323 324 335 345 345 348 348 342 345 346 349 351 353 353 354 353 353 351 348 342 347 346 341 338 334 332 328 326 323 319 316 309
330 330 333 332 332 331 333 333 335 330 341 332 330 337 346 348 348 349 350 346 346 347 349 353 355 355 353 352 350 347 343 343 342 340 334 334 332 329 327 324 321 317 313 306
332 331 331 332 332 331 331 336 333 343 345 344 346 347 349 350 348 347 344 341 341 349 351 354 355 354 352 351 349 346 346 343 341 338 333 330 329 327 325 322 318 311 306 310
327 331 331 333 331 330 331 335 340 343 343 342 343 344 348 351 349 343 343 348 347 345 351 354 354 354 352 348 347 346 346 343 341 337 332 330 328 326 324 318 312 311 313 315
325 328 332 334 333 330 330 336 335 338 346 340 341 344 348 353 353 353 351 350 347 349 350 353 354 353 347 346 346 348 346 343 340 335 331 329 328 326 323 318 315 316 317 317
335 335 336 336 337 333 334 336 336 345 344 338 338 340 341 350 351 351 353 353 351 351 353 354 353 348 346 344 347 348 345 341 336 333 330 329 327 326 324 321 319 319 319 318
337 337 340 335 338 337 336 337 342 341 338 337 337 337 338 338 343 353 354 354 355 355 353 351 348 347 345 344 348 346 339 334 331 331 328 328 326 325 323 320 319 319 319 319
342 339 339 339 339 335 335 335 335 336 339 337 337 336 337 337 338 353 354 351 348 348 347 348 347 342 341 344 340 333 330 338 335 328 329 327 325 323 321 319 319 319 320 319
333 336 343 339 336 337 332 333 334 335 336 335 335 335 336 337 336 351 353 350 348 346 345 342 340 339 339 336 336 340 338 336 330 327 327 325 325 322 320 319 318 317 319 321
323 335 339 339 336 334 331 333 333 330 328 323 334 333 335 336 338 348 352 349 347 344 342 340 338 337 336 337 338 339 337 332 329 327 326 326 324 321 320 319 318 319 320 321
318 318 324 322 325 326 326 321 325 323 324 322 334 329 326 335 341 345 351 349 347 345 345 344 342 341 341 342 339 331 331 330 328 327 325 324 323 321 319 319 319 319 320 319
Wind_Speed
2 5 9 12 7 4 3 2 6 8 5 8 15 14 9 18 16 16 16 16 17 18 19 18 19 19 18 18 18 18 18 18 15 12 9 8 10 9 11 10 7 6 4 2
4 12 10 6 7 5 4 2 3 6 1 8 6 13 9 18 22 21 18 18 18 18 15 16 20 20 21 21 20 19 20 20 19 16 15 8 7 8 9 7 7 7 5 4
10 5 5 8 7 7 5 5 3 5 1 6 8 8 5 9 16 18 19 17 18 18 17 16 18 21 20 21 22 21 22 21 20 19 15 10 7 5 10 10 6 5 3 3
5 2 4 6 7 8 14 10 6 4 3 5 2 8 11 6 12 18 21 21 21 19 18 15 16 20 22 22 18 20 21 21 20 22 19 16 11 13 14 8 6 8 8 5
4 4 6 7 8 8 4 5 5 4 3 3 4 4 9 1 7 17 22 24 23 20 19 18 17 22 21 19 20 19 20 21 21 23 22 16 13 9 9 8 8 9 8 7
1 1 2 2 2 9 5 3 2 2 1 6 2 7 11 4 7 2 7 21 24 23 20 19 22 15 18 19 20 20 20 22 22 22 24 20 16 10 11 11 10 9 8 5
2 7 3 4 5 3 3 6 7 7 6 8 2 5 11 15 14 11 10 9 20 23 21 19 18 18 20 23 23 22 22 21 23 24 22 20 17 12 11 12 11 9 8 6
3 6 8 8 15 10 11 14 9 14 10 10 4 6 6 12 14 7 6 8 12 18 19 20 20 21 23 24 25 23 23 20 21 23 21 20 19 14 14 13 11 10 8 8
4 5 3 5 3 8 6 7 4 5 1 4 3 5 11 13 16 8 7 7 9 14 19 20 18 21 22 24 27 27 24 21 20 21 21 21 18 15 13 11 12 10 9 9
1 5 6 2 5 3 5 8 5 2 7 11 5 3 6 5 9 5 5 9 10 13 16 15 15 20 22 23 22 22 23 23 21 20 21 21 17 16 15 15 14 13 12 10
2 3 2 2 8 12 6 4 1 2 3 7 9 5 9 11 11 10 6 9 10 13 15 16 15 19 18 20 22 24 25 23 22 21 21 20 17 17 17 15 14 13 12 10
2 2 5 6 0 5 8 14 13 9 10 3 4 8 8 11 10 8 11 5 11 12 14 15 15 20 21 23 24 26 25 23 21 20 18 17 17 18 18 15 13 13 11 9
1 2 4 3 4 3 3 3 10 6 3 11 11 7 4 2 7 8 12 4 7 11 13 14 15 16 22 25 26 26 24 23 22 21 20 18 17 16 16 15 13 13 14 11
3 3 2 3 6 6 8 7 7 15 10 14 12 14 11 7 7 9 11 7 8 13 13 14 15 15 22 24 25 25 24 22 22 21 19 19 19 18 15 15 15 14 13 12
3 6 4 8 10 5 7 11 8 15 13 10 12 12 7 4 12 10 10 10 8 14 16 17 17 16 20 23 25 27 27 27 28 30 26 21 19 17 17 15 15 14 12 11
1 5 3 7 5 8 11 6 8 12 13 10 11 13 3 14 10 9 10 10 12 13 15 15 14 16 19 26 28 31 33 36 43 47 48 38 27 25 23 20 18 16 13 13
4 4 4 8 4 11 10 3 6 4 4 3 6 5 12 15 13 11 10 11 12 13 13 17 18 18 26 31 35 36 37 36 32 28 30 38 38 31 26 21 19 17 16 14
9 5 3 8 7 10 2 4 1 2 1 1 4 9 12 14 16 15 8 9 11 12 15 16 17 23 28 31 33 34 34 33 29 27 24 26 27 34 28 22 19 19 17 15
16 7 5 5 7 7 7 6 4 3 3 2 5 9 12 15 11 5 7 12 12 12 13 15 22 25 28 32 34 36 32 29 26 26 27 28 28 28 27 23 21 19 17 14
8 5 4 2 7 8 3 4 3 7 6 2 4 7 12 13 7 5 21 19 14 9 12 16 21 22 23 26 30 30 31 31 26 25 25 27 27 31 27 24 23 20 17 15
3 3 9 8 7 7 2 9 2 6 3 5 7 8 11 7 5 16 17 15 10 3 8 13 20 22 25 28 32 28 22 19 21 26 30 30 22 23 24 23 21 19 18 16
4 4 4 2 5 9 2 8 3 5 5 12 8 8 11 13 13 12 11 11 9 5 9 15 17 18 21 28 28 20 16 16 13 15 20 23 23 20 21 22 20 18 17 17
5 5 3 5 2 3 5 6 5 5 9 8 10 12 12 13 14 12 8 8 6 6 8 11 12 14 17 22 25 28 28 24 24 21 20 20 21 18 21 21 19 18 18 17
4 3 4 2 4 6 4 4 5 5 8 13 13 14 13 11 13 11 6 5 4 6 8 13 16 16 17 23 28 32 31 26 26 24 23 24 21 19 19 21 20 20 20 18
4 4 4 6 9 9 6 7 3 6 11 15 11 11 13 10 11 7 5 1 5 8 11 15 17 19 21 25 26 32 37 38 42 28 25 23 21 21 20 19 20 19 18 16
9 14 10 12 10 5 8 11 8 10 10 14 12 15 13 9 10 7 4 3 6 8 10 11 15 18 22 27 26 23 29 33 31 26 24 24 22 21 20 20 18 20 18 19
Wind_Direction
53 216 214 219 200 160 190 199 302 298 211 225 238 256 211 186 201 209 204 207 208 216 219 212 216 218 215 216 214 215 210 210 199 194 178 194 207 204 210 225 236 207 196 207
162 221 220 123 170 199 206 239 297 293 254 220 285 265 236 194 203 206 208 210 213 223 215 213 213 212 216 213 211 209 211 210 204 203 194 181 186 207 221 232 212 186 217 228
202 199 169 182 166 200 223 246 240 290 184 254 298 282 197 206 215 213 222 222 223 221 223 215 210 210 211 212 206 206 209 209 204 201 192 186 180 197 201 205 178 163 173 174
226 337 186 197 214 206 264 211 246 259 254 314 314 301 299 183 205 212 216 219 221 221 224 222 216 209 208 216 204 203 208 207 203 197 192 193 188 192 208 199 185 158 154 152
140 169 185 216 230 186 268 169 249 258 243 250 198 252 277 254 258 226 217 216 219 215 219 218 214 211 209 204 199 197 199 202 201 197 196 195 202 195 186 168 156 157 149 143
209 310 247 176 293 213 128 174 82 76 196 260 25 234 283 281 246 337 211 219 218 215 214 220 220 206 201 193 187 187 188 195 202 200 198 199 199 195 178 169 159 161 158 145
297 234 204 177 235 254 202 215 239 231 225 257 69 204 253 286 272 279 281 223 214 213 209 210 209 195 191 187 186 185 186 192 195 200 204 203 202 199 200 187 182 177 169 158
266 255 206 178 215 219 216 229 230 244 236 246 139 216 247 266 285 271 255 250 219 210 209 206 205 199 192 187 185 185 189 193 195 198 202 203 207 210 202 199 187 186 171 154
197 252 283 228 222 207 163 209 282 234 52 260 229 247 278 267 273 263 247 220 199 200 203 205 199 198 193 188 187 186 184 187 193 191 193 195 200 200 194 181 172 162 158 152
129 273 248 224 183 63 248 141 193 224 236 246 225 246 247 253 267 286 266 216 195 192 196 197 194 191 193 191 185 182 184 184 186 185 188 189 195 198 190 181 165 162 161 162
197 232 200 224 204 218 204 213 90 223 241 256 259 245 224 241 255 277 273 242 202 189 191 189 190 190 187 183 180 179 179 176 177 179 181 179 176 177 170 160 155 156 156 161
11 242 265 260 31 315 278 240 232 237 223 244 273 249 288 249 279 279 278 252 212 198 188 186 180 175 176 179 179 178 171 170 172 170 169 166 161 162 159 152 149 154 158 163
154 254 284 267 135 132 252 232 235 229 245 228 244 248 251 296 300 289 283 313 219 201 188 180 178 179 179 180 177 171 165 166 166 157 160 155 151 153 152 150 152 159 158 155
222 210 263 293 298 302 282 264 242 242 234 242 239 256 267 247 309 323 304 273 208 190 196 190 184 183 182 177 173 165 160 157 151 151 152 152 155 161 155 156 154 159 158 151
325 266 206 273 276 227 262 266 260 228 244 230 264 210 259 324 323 319 302 281 217 194 190 194 189 178 173 170 168 165 158 153 149 156 163 162 158 157 158 155 156 156 153 149
342 279 231 285 217 268 293 274 244 238 243 253 265 274 341 316 311 310 305 275 240 211 194 188 187 174 171 170 165 159 157 160 173 180 165 168 162 163 163 163 160 157 162 160
278 271 252 267 313 308 265 337 272 235 227 232 247 300 322 315 311 318 312 295 264 233 200 184 182 181 176 174 167 165 165 169 169 171 168 165 163 163 163 164 166 167 166 170
246 250 271 275 299 247 132 96 263 260 101 338 307 316 313 304 301 305 323 300 278 239 206 194 186 183 183 174 173 169 168 168 170 171 168 154 159 157 160 168 170 167 163 165
222 216 242 251 236 298 270 190 174 237 205 332 336 338 328 322 299 183 39 358 329 264 223 203 192 182 178 176 174 169 165 164 170 172 168 159 164 158 160 166 170 162 159 166
161 209 235 200 238 260 325 45 45 144 235 83 1 352 342 342 341 350 337 332 322 280 216 197 184 176 166 174 175 170 167 168 173 168 169 168 173 164 160 169 173 169 172 170
194 182 219 224 247 254 347 341 349 199 52 2 358 349 344 351 324 308 326 338 332 279 189 174 169 170 172 171 175 174 167 162 163 167 172 166 176 168 162 168 172 170 171 177
246 237 217 191 228 251 25 122 216 323 20 310 334 326 318 318 325 337 351 3 18 79 138 162 166 169 170 170 167 147 122 118 142 168 160 161 166 176 167 165 170 171 172 175
247 229 272 229 262 21 342 322 314 289 281 306 314 320 315 315 325 333 359 28 50 102 130 154 148 136 147 159 144 126 137 150 168 188 172 169 168 180 166 165 172 175 177 178
236 178 243 271 244 228 295 292 277 291 307 328 314 328 318 311 318 319 333 46 95 121 121 121 127 135 133 135 142 158 164 179 161 175 167 168 177 178 169 172 181 188 189 185
280 167 239 251 264 277 254 226 260 319 312 317 332 334 326 321 318 314 304 116 141 136 140 141 146 153 151 151 160 178 183 176 156 171 166 171 182 178 174 182 190 193 197 194
224 243 241 254 268 258 255 305 295 297 305 315 303 314 318 323 312 300 262 227 156 166 174 185 183 183 184 180 177 174 175 165 154 156 161 180 178 180 178 184 193 200 200 201